NC4TP Weather Reports


time (UTC)temp
C
wind
direction
speed
KPH
gust
KPH
rain 1hr
cm
rain 24hr
cm
rain mn
cm
humidity
%
barometer
mb
20260503185354 17 288 0.0 1.6 0.00 0.00 0.00 39 1016.0
20260503184915 17 290 0.0 12.9 0.00 0.00 0.00 39 1016.2
20260503184353 17 173 0.0 12.9 0.00 0.00 0.00 38 1016.4
20260503183854 17 314 0.0 8.0 0.00 0.00 0.00 38 1016.4
20260503183355 17 241 0.0 8.0 0.00 0.00 0.00 39 1016.4
20260503182915 18 173 0.0 16.1 0.00 0.00 0.00 36 1016.5
20260503182336 18 307 0.0 16.1 0.00 0.00 0.00 38 1016.5
20260503181912 18 296 0.0 1.6 0.00 0.00 0.00 42 1016.5
20260503181352 17 247 0.0 1.6 0.00 0.00 0.00 42 1016.6
20260503180852 17 306 0.0 12.9 0.00 0.00 0.00 40 1016.8
20260503180355 17 322 0.0 12.9 0.00 0.00 0.00 37 1016.8
20260503175852 17 311 1.6 8.0 0.00 0.00 0.00 40 1016.9
20260503175352 17 304 0.0 1.6 0.00 0.00 0.00 39 1016.9
20260503174856 17 305 0.0 9.7 0.00 0.00 0.00 38 1016.8
20260503174338 17 165 0.0 11.3 0.00 0.00 0.00 40 1016.9
20260503173840 17 180 0.0 11.3 0.00 0.00 0.00 39 1017.1
20260503173344 17 132 1.6 8.0 0.00 0.00 0.00 41 1017.2
20260503172839 17 251 0.0 0.0 0.00 0.00 0.00 42 1017.2
20260503172401 17 196 0.0 0.0 0.00 0.00 0.00 41 1017.3
20260503171842 16 266 0.0 3.2 0.00 0.00 0.00 37 1017.4
20260503171345 17 348 0.0 9.7 0.00 0.00 0.00 40 1017.6
20260503170848 17 317 0.0 9.7 0.00 0.00 0.00 40 1017.7
20260503170349 17 231 0.0 6.4 0.00 0.00 0.00 40 1017.7
20260503150900 13 130 0.0 3.2 0.00 0.00 0.00 54 1019.1
20260503150340 13 284 0.0 0.0 0.00 0.00 0.00 55 1019.1
20260503131348 8 281 0.0 0.0 0.00 0.00 0.00 73 1019.2
20260503130910 8 174 0.0 0.0 0.00 0.00 0.00 76 1019.2
20260503130349 8 294 0.0 0.0 0.00 0.00 0.00 77 1019.2
20260503110336 0 294 0.0 0.0 0.00 0.00 0.00 93 1018.6
20260503090336 0 340 0.0 0.0 0.00 0.00 0.00 92 1018.1
20260503081342 0 340 0.0 0.0 0.00 0.00 0.00 91 1018.0
20260503080846 0 340 0.0 0.0 0.00 0.00 0.00 91 1018.0
20260503080348 0 340 0.0 0.0 0.00 0.00 0.00 91 1017.9
20260503072850 0 340 0.0 0.0 0.00 0.00 0.00 91 1018.0
20260503072352 0 340 0.0 0.0 0.00 0.00 0.00 91 1017.9
20260503071854 1 340 0.0 0.0 0.00 0.00 0.00 91 1018.0
20260503071355 1 340 0.0 0.0 0.00 0.00 0.00 91 1018.0
20260503070836 1 340 0.0 0.0 0.00 0.00 0.00 90 1018.0
20260503070338 1 340 0.0 0.0 0.00 0.00 0.00 90 1018.0
20260503060343 1 340 0.0 0.0 0.00 0.00 0.00 87 1018.3
20260503054844 1 340 0.0 0.0 0.00 0.00 0.00 88 1018.4
20260503054342 1 340 0.0 0.0 0.00 0.00 0.00 88 1018.4
20260503053844 1 340 0.0 0.0 0.00 0.00 0.00 88 1018.4
20260503053344 1 340 0.0 0.0 0.00 0.00 0.00 88 1018.4
20260503052842 1 340 0.0 0.0 0.00 0.00 0.00 87 1018.4
20260503052342 1 340 0.0 0.0 0.00 0.00 0.00 87 1018.4
20260503051844 1 340 0.0 0.0 0.00 0.00 0.00 87 1018.4
20260503051346 1 340 0.0 0.0 0.00 0.00 0.00 87 1018.3
20260503050848 1 340 0.0 0.0 0.00 0.00 0.00 87 1018.3
20260503050349 1 340 0.0 0.0 0.00 0.00 0.00 86 1018.3
20260503045848 1 340 0.0 0.0 0.00 0.00 0.00 86 1018.4
20260503045349 2 340 0.0 0.0 0.00 0.00 0.00 86 1018.4
20260503044849 2 340 0.0 0.0 0.00 0.00 0.00 86 1018.3
20260503044351 2 340 0.0 0.0 0.00 0.00 0.00 85 1018.3
20260503043850 2 340 0.0 0.0 0.00 0.00 0.00 85 1018.3
20260503043413 2 340 0.0 0.0 0.00 0.00 0.00 85 1018.3
20260503042849 2 340 0.0 0.0 0.00 0.00 0.00 85 1018.4
20260503042351 2 340 0.0 0.0 0.00 0.00 0.00 84 1018.4
20260503041852 2 340 0.0 0.0 0.00 0.00 0.00 84 1018.4
20260503041353 2 340 0.0 0.0 0.00 0.00 0.00 84 1018.4
20260503040853 2 340 0.0 0.0 0.00 0.00 0.00 83 1018.4
20260503040335 2 340 0.0 0.0 0.00 0.00 0.00 83 1018.4
20260503035855 2 340 0.0 0.0 0.00 0.00 0.00 83 1018.3
20260503035336 2 340 0.0 0.0 0.00 0.00 0.00 82 1018.3
20260503034840 3 340 0.0 0.0 0.00 0.00 0.00 82 1018.3
20260503034342 3 340 0.0 0.0 0.00 0.00 0.00 82 1018.3
20260503033845 3 340 0.0 0.0 0.00 0.00 0.00 82 1018.3
20260503033342 3 340 0.0 0.0 0.00 0.00 0.00 81 1018.3
20260503032901 3 340 0.0 0.0 0.00 0.00 0.00 81 1018.3
20260503032341 3 340 0.0 0.0 0.00 0.00 0.00 81 1018.3
20260503031844 3 340 0.0 0.0 0.00 0.00 0.00 81 1018.4
20260503031345 3 340 0.0 0.0 0.00 0.00 0.00 80 1018.3
20260503030907 3 340 0.0 0.0 0.00 0.00 0.00 79 1018.4
20260503030347 3 340 0.0 0.0 0.00 0.00 0.00 79 1018.4
20260503025845 3 340 0.0 0.0 0.00 0.00 0.00 79 1018.3
20260503025348 4 340 0.0 0.0 0.00 0.00 0.00 79 1018.4
20260503024850 4 340 0.0 0.0 0.00 0.00 0.00 78 1018.4
20260503024352 4 340 0.0 0.0 0.00 0.00 0.00 78 1018.4
20260503023850 4 340 0.0 0.0 0.00 0.00 0.00 77 1018.4
20260503023353 4 340 0.0 0.0 0.00 0.00 0.00 77 1018.4
20260503022851 5 340 0.0 0.0 0.00 0.00 0.00 77 1018.4
20260503022351 5 340 0.0 0.0 0.00 0.00 0.00 78 1018.4
20260503021913 5 340 0.0 0.0 0.00 0.00 0.00 77 1018.3
20260503021354 5 340 0.0 0.0 0.00 0.00 0.00 76 1018.3
20260503020914 5 340 0.0 0.0 0.00 0.00 0.00 76 1018.3
20260503020355 5 340 0.0 0.0 0.00 0.00 0.00 74 1018.2
20260503015853 5 340 0.0 0.0 0.00 0.00 0.00 73 1018.2
20260503015336 5 340 0.0 0.0 0.00 0.00 0.00 72 1018.2
20260503014837 6 340 0.0 0.0 0.00 0.00 0.00 72 1018.1
20260503014334 6 340 0.0 0.0 0.00 0.00 0.00 72 1018.1
20260503013857 6 340 0.0 0.0 0.00 0.00 0.00 72 1018.1
20260503013336 6 340 0.0 0.0 0.00 0.00 0.00 72 1018.0
20260503012836 6 340 0.0 0.0 0.00 0.00 0.00 71 1018.0
20260503012338 6 340 0.0 0.0 0.00 0.00 0.00 71 1017.9
20260503011858 7 340 0.0 0.0 0.00 0.00 0.00 69 1017.9
20260503011400 7 340 0.0 0.0 0.00 0.00 0.00 68 1017.8
20260503010840 7 340 0.0 0.0 0.00 0.00 0.00 68 1017.7
20260503010341 7 340 0.0 0.0 0.00 0.00 0.00 68 1017.7
20260503005917 7 340 0.0 0.0 0.00 0.00 0.00 69 1017.7
20260503005336 7 340 0.0 0.0 0.00 0.00 0.00 67 1017.7
20260503004837 8 340 0.0 0.0 0.00 0.00 0.00 66 1017.5
20260503004359 8 340 0.0 0.0 0.00 0.00 0.00 64 1017.5
20260503003900 8 340 0.0 0.0 0.00 0.00 0.00 65 1017.5
20260503003343 8 340 0.0 0.0 0.00 0.00 0.00 65 1017.5
20260503002900 8 340 0.0 0.0 0.00 0.00 0.00 64 1017.5
20260503002342 8 340 0.0 0.0 0.00 0.00 0.00 63 1017.5
20260503001844 8 340 0.0 0.0 0.00 0.00 0.00 61 1017.5
20260503001345 9 340 0.0 0.0 0.00 0.00 0.00 61 1017.4
20260503000844 9 340 0.0 0.0 0.00 0.00 0.00 58 1017.3
20260503000346 9 340 0.0 0.0 0.00 0.00 0.00 58 1017.3
20260502235846 10 340 0.0 0.0 0.00 0.00 0.00 58 1017.2
20260502235348 10 340 0.0 0.0 0.00 0.00 0.00 57 1017.2
20260502234849 10 333 0.0 0.0 0.00 0.00 0.00 57 1017.2
20260502234412 10 333 0.0 0.0 0.00 0.00 0.00 57 1017.2
20260502233850 10 332 0.0 0.0 0.00 0.00 0.00 57 1017.1
20260502233412 10 355 0.0 0.0 0.00 0.00 0.00 54 1017.1
20260502232848 10 355 0.0 0.0 0.00 0.00 0.00 55 1017.0
20260502232351 10 355 0.0 0.0 0.00 0.00 0.00 55 1017.1
20260502231848 10 355 0.0 0.0 0.00 0.00 0.00 53 1017.1
20260502231351 11 355 0.0 0.0 0.00 0.00 0.00 58 1017.1
20260502230850 11 355 0.0 0.0 0.00 0.00 0.00 54 1017.0
20260502230351 11 355 0.0 0.0 0.00 0.00 0.00 53 1017.1
20260502225851 11 355 0.0 0.0 0.00 0.00 0.00 51 1017.0
20260502225351 11 355 0.0 0.0 0.00 0.00 0.00 48 1017.0
20260502224854 11 271 0.0 0.0 0.00 0.00 0.00 52 1016.9
20260502224336 11 321 0.0 0.0 0.00 0.00 0.00 54 1016.9
20260502223857 12 321 0.0 0.0 0.00 0.00 0.00 53 1016.8
20260502223338 12 321 0.0 0.0 0.00 0.00 0.00 48 1016.8
20260502222837 12 321 0.0 1.6 0.00 0.00 0.00 49 1016.8
20260502222355 12 321 0.0 1.6 0.00 0.00 0.00 49 1016.8
20260502221836 12 329 0.0 0.0 0.00 0.00 0.00 47 1016.9
20260502221339 12 307 0.0 0.0 0.00 0.00 0.00 50 1016.8
20260502220841 12 304 0.0 0.0 0.00 0.00 0.00 50 1016.8
20260502220342 12 304 0.0 0.0 0.00 0.00 0.00 49 1016.7
20260502215843 12 63 0.0 0.0 0.00 0.00 0.00 49 1016.7
20260502215407 12 63 0.0 0.0 0.00 0.00 0.00 45 1016.6
20260502214848 12 343 0.0 0.0 0.00 0.00 0.00 45 1016.7
20260502214350 12 345 0.0 0.0 0.00 0.00 0.00 49 1016.6
20260502213850 12 257 0.0 0.0 0.00 0.00 0.00 48 1016.6
20260502213351 12 329 0.0 0.0 0.00 0.00 0.00 45 1016.6
20260502212850 13 42 0.0 0.0 0.00 0.00 0.00 45 1016.5
20260502212347 13 300 0.0 0.0 0.00 0.00 0.00 44 1016.5
20260502211848 13 348 0.0 0.0 0.00 0.00 0.00 45 1016.6
20260502211350 13 355 0.0 0.0 0.00 0.00 0.00 46 1016.5
20260502210852 13 355 0.0 0.0 0.00 0.00 0.00 43 1016.4
20260502210354 13 355 0.0 0.0 0.00 0.00 0.00 43 1016.5
20260502205853 13 321 0.0 0.0 0.00 0.00 0.00 44 1016.4
20260502205353 13 342 0.0 0.0 0.00 0.00 0.00 46 1016.4
20260502204835 13 65 0.0 0.0 0.00 0.00 0.00 48 1016.4
20260502204357 13 346 0.0 0.0 0.00 0.00 0.00 41 1016.5
20260502203917 14 5 0.0 0.0 0.00 0.00 0.00 41 1016.5
20260502203336 14 319 0.0 0.0 0.00 0.00 0.00 41 1016.5
20260502202850 14 340 0.0 0.0 0.00 0.00 0.00 46 1016.5
20260502202353 14 158 0.0 0.0 0.00 0.00 0.00 48 1016.5
20260502201915 13 11 0.0 0.0 0.00 0.00 0.00 49 1016.6
20260502201353 13 293 0.0 0.0 0.00 0.00 0.00 44 1016.6
20260502200835 13 272 0.0 0.0 0.00 0.00 0.00 45 1016.6
20260502200358 13 220 0.0 0.0 0.00 0.00 0.00 40 1016.6
20260502195836 13 19 0.0 0.0 0.00 0.00 0.00 44 1016.8
20260502195359 14 234 0.0 0.0 0.00 0.00 0.00 49 1016.7
20260502194839 13 355 0.0 0.0 0.00 0.00 0.00 42 1016.9
20260502194341 14 355 0.0 0.0 0.00 0.00 0.00 41 1016.8
20260502193843 14 360 0.0 0.0 0.00 0.00 0.00 47 1016.8
20260502193339 14 65 0.0 0.0 0.00 0.00 0.00 48 1016.8
20260502192837 14 65 0.0 0.0 0.00 0.00 0.00 43 1016.9
20260502192359 13 100 0.0 0.0 0.00 0.00 0.00 46 1016.9
20260502191837 13 360 0.0 6.4 0.00 0.00 0.00 44 1017.0
20260502191340 14 309 0.0 1.6 0.00 0.00 0.00 42 1017.0
20260502190840 14 291 0.0 0.0 0.00 0.00 0.00 45 1017.1
20260502190342 14 111 0.0 0.0 0.00 0.00 0.00 46 1017.1
20260502185841 14 324 0.0 14.5 0.00 0.00 0.00 44 1017.0